Regional Weather Roundup
Issued by NWS San Diego, CA

Home | Current Version | Previous Version | Text Only | Print | Product List | Glossary On
Versions: 1 2 3 4 5 6 7 8 9 10 11 12 13 14 15 16 17 18 19 20 21 22 23 24 25 26 27 28 29 30 31 32 33 34 35 36 37 38 39 40 41 42 43 44 45 46 47 48 49 50
000
ASUS46 KSGX 251111
RWRSGX

SAN DIEGO HOURLY WEATHER ROUNDUP
NATIONAL WEATHER SERVICE SAN DIEGO CA
300 AM PST SAT FEB 25 2017

NOTE: "FAIR" INDICATES FEW OR NO CLOUDS BELOW 12,000 FEET WITH NO
SIGNIFICANT WEATHER AND/OR OBSTRUCTIONS TO VISIBILITY.

CAZ042-043-060-061-PZZ750-775-251200-

GREATER SAN DIEGO AREA

CITY           SKY/WX    TMP DP  RH WIND       PRES   REMARKS
SAN DIEGO AP   CLEAR     48  38  68 CALM      30.15F
POINT LOMA       N/A     48  39  72 NE3         N/A
NATIONAL CITY    N/A     45  39  79 CALM      30.14F
CHULA VISTA      N/A     42  39  90 E1        30.07F
IMPERIAL BEACH CLEAR    N/A N/A N/A E7        30.14F
BROWN FIELD    CLEAR     41  38  89 SE5       30.12F
MIRAMAR MCAS     N/A     44  37  76 E9        30.12F
MONTGOMERY FLD CLEAR     44  37  76 CALM      30.13F

$$

NORTH SAN DIEGO COUNTY

CITY           SKY/WX    TMP DP  RH WIND       PRES   REMARKS
CAMP PENDLETON CLEAR     36  34  92 CALM      30.14F
OCEANSIDE AP   CLEAR     39  36  89 NE3       30.14F
OCEANSIDE HBR    N/A     41  36  81 E3        30.16F
VISTA            N/A     39  35  86 CALM      30.12F
CARLSBAD       CLEAR     44  38  79 E5        30.12F
DEL MAR          N/A     45  39  79 CALM      30.16F
LA JOLLA SCRIP   N/A     49  40  71 NE3       30.13F
FALLBROOK        N/A     43  39  85 CALM      30.12F
ESCONDIDO        N/A     41  35  77 CALM      30.16F
SAN MARCOS       N/A     43  35  73 CALM      30.15F
POWAY            N/A     37  34  88 CALM      30.17F

$$

EAST SAN DIEGO COUNTY

CITY           SKY/WX    TMP DP  RH WIND       PRES   REMARKS
RAMONA         CLEAR     34  33  96 CALM      30.11F
SANTEE LAKES     N/A     38  35  89 CALM      30.15F
LA MESA          N/A     44  38  82 CALM      30.08F
JAMUL            N/A     38  36  93 CALM      30.16F
DESCANSO N       N/A     32  17  55 NE7       30.12F WCI  25
MT. LAGUNA OBS   N/A     36  -1  21 W6        29.67F WCI  31
CAMPO            N/A     29  27  92 NE5       30.07F WCI  24

$$

ORANGE COUNTY AND THE LOS ANGELES BASIN

CITY           SKY/WX    TMP DP  RH WIND       PRES   REMARKS
JOHN WAYNE AP  CLEAR     46  37  71 CALM      30.12F
LAKE FOREST FR   N/A     44  31  62 N2        30.02F
HUNTINGTON BCH   N/A     39  38  95 CALM      30.14F
LOS ALAMITOS   FAIR      43  36  75 CALM      30.12F
FULLERTON      CLEAR     45  36  70 E5        30.12F
LONG BEACH     CLEAR     45  36  70 CALM      30.13F
L.A. AP        CLEAR     45  39  79 E5        30.13F
L.A. DOWNTOWN  CLEAR     47  36  65 CALM      30.12F

$$

THE INLAND EMPIRE

CITY           SKY/WX    TMP DP  RH WIND       PRES   REMARKS
CORONA         CLEAR     40  35  83 SE7       30.14F
CHINO          CLEAR     42  36  79 E5        30.14F
ONTARIO        CLEAR     40  33  76 NE5       30.12F
SAN BERNARDINO FAIR      38  31  77 E3        30.14F
RIVERSIDE AP   CLEAR     40  35  83 NE5       30.13F
MORENO VALLEY    N/A     39  37  94 CALM      28.22F
MARCH ARB      CLEAR     33  33 100 CALM      30.11F
HORSETHIEF CYN   N/A     40  29  65 CALM      30.16F
PERRIS           N/A     40  37  91 CALM      30.17F
FRENCH VALLEY  FAIR      36  32  87 CALM      30.13F
TEMECULA         N/A     38  36  93 W2        30.20S

$$

SAN BERNARDINO AND RIVERSIDE COUNTY MOUNTAINS

CITY           SKY/WX    TMP DP  RH WIND       PRES   REMARKS
BIG BEAR AP    CLEAR     19  12  73 CALM      30.08F
ANGELUS OAKS     N/A     29  14  52 CALM      30.14F
PINE COVE        N/A     34   6  31 N3        30.15F

$$

SOUTHERN DESERT INCLUDING THE COACHELLA VALLEY

CITY           SKY/WX    TMP DP  RH WIND       PRES   REMARKS
PALM SPRINGS   CLEAR     48  36  63 CALM      30.13F
PALM DESERT      N/A     46  34  63 CALM        N/A
THERMAL        CLEAR     40  33  76 N5        30.10F
BLYTHE         CLEAR     43  38  82 N8        30.11F
IMPERIAL AP    CLEAR     44  31  60 CALM      30.10F
EL CENTRO NAS  CLEAR     42  29  59 W5        30.11F
YUMA AZ        CLEAR     48  31  51 N3        30.10

$$

UPPER DESERT

CITY           SKY/WX    TMP DP  RH WIND       PRES   REMARKS
VICTORVILLE AP CLEAR     36  25  64 CALM      30.09F
HESPERIA         N/A     34  27  76 W3        30.30F
PALMDALE       CLEAR     35  28  75 SE5       30.09F WCI  31
LANCASTER      CLEAR     34  22  61 W8        30.09F WCI  27
EDWARDS AFB    CLEAR     29  25  84 E3        30.07F
DAGGETT        CLEAR     39  20  46 W9        30.10F WCI  33
29 PALMS N     CLEAR     38  25  59 W6        30.16F WCI  33
NEEDLES        CLEAR     44  27  51 S6        30.11F

$$

REGIONAL REPORTS

CITY           SKY/WX    TMP DP  RH WIND       PRES   REMARKS
SANTA BARBARA  CLEAR     41  38  89 CALM      30.12F
SANDBERG       CLEAR     36  21  54 SW6       30.08F WCI  31
LAS VEGAS NV   CLEAR     39  21  48 S6        30.07F WCI  35
PHOENIX AZ     CLEAR     46  30  53 E6        30.10F
TIJUANA        CLEAR     45  39  81 CALM      30.16
ENSENADA NW      N/A     49  32  52 NE7       30.11F

$$

OFFSHORE ISLANDS

CITY           SKY/WX    TMP DP  RH WIND       PRES   REMARKS
CATALINA ARPT  CLEAR     46  32  58 SE3       30.11F
SAN NICOLAS IS CLEAR    N/A N/A N/A W7        30.12F

$$

MARINE AND OFFSHORE BUOY REPORTS

STATION/POSITION SKY/WX   TEMP    WIND        PRES    VSBY  SWELL
                          AIR SEA DIR/SP/G                  HT/PER/DIR
                          (F)     (DEG/KT/KT) (MB)    (MI)  (FT/S/D)
TANNER BANKS               54 59  310/ 14/ 17 1020.6F         5/310/17
S CLEMENTE BASIN           55 59  330/  6/  8 1020.5F         5/280/11
SAN NICOLAS IS.               55                N/A           3/300/17
SO. S. ROSA ISLA           53 56  310/ 17/ 19 1020.2F         5/310/16
W. S. BARBARA CH           52 56  330/ 16/ 17 1020.4F         5/310/16
M. S. BARBARA CH                   70/  4/  6 1020.5F
S. MONICA BASIN            54 58   30/  6/  8 1019.9F         3/270/11
S PEDRO CHANNEL               58                N/A           2/260/11
CMP PENDLETON NS              58                N/A           2/240/12
OCEANSIDE OFFSHR              58                N/A           2/260/12
TORREY PINES OTR              59                N/A           2/260/12
POINT LOMA SOUTH              59                N/A           2/260/12

$$




USA.gov is the U.S. government's official web portal to all federal, state and local government web resources and services.